STARLINK-36723, 67915

Orbit data source: Space-Track

STARLINK-36723, 67915 is a payload satellite owned by SpaceX/Seattle (US) in LEO that was launched on Sun, 22 Feb 2026 UTC via an FALCON 9 launch vehicle from the Air Force Eastern Test Range (AFETR). Payload-class satellites include a variety of spacecraft equipped with specific instruments for various scientific and technological missions. These include communications satellites like Starlink; space stations such as the ISS; scientific satellites like the Hubble; Earth observation satellites from companies like Planet Labs, Umbra, and HawkEye 360; GPS; miniature CubeSats for education and research; and military/defense satellites.

Loading next visibility...
Identifier
67915, 2026-036M
Orbit
LEO
Country
Flag of USUS
Related business
Manufacturer
SpaceX/Seattle
Mission
Operational spacecraft
Bus & Motor
STARLINK V2MO, Unknown motor
Mass
575 kg wet, ~530 kg dry
Launch date (UTC)
2026-02-22 (2 months ago)
Launch vehicle
FALCON 9
Launch site
Air Force Eastern Test Range (AFETR)
Object type
Payload
Rocket body
Debris
Shape & HBR
Unknown shape, 17.7 m
Radar Cross Section
RCS unknown

Expand to show TLE details & history
Last TLE update: 12 hours ago

TLE from 12 hours ago
0 STARLINK-36723
1 67915U 26036M   26104.19538059  .00011802  00000-0  43761-3 0  9994
2 67915  43.0013  44.6101 0000924 268.8960  91.1786 15.27587048  9155
Epoch: 2026-04-14T04:41Z
TLE epoch observation values (Epoch: 2026-04-14T04:41:20.882Z)
Latitude
-0.00003°
Longitude
131.89795°
Altitude
482.817 km
Speed
7.626 km/s
True Right ascension
02h 58m 26s
True Declination
0° 00' 00"
Sunlit
Object was in daylight at epoch
Visualization orbit readout
Latitude
Unknown
Longitude
Unknown
Altitude
Unknown
Speed
Unknown
Apparent Right ascension
Unknown
Apparent Declination
Unknown
Sunlit
N/A
Visualization observer readout
Local Sidereal Time
23:08:08
Azimuth
Unknown
Elevation
Unknown
Doppler factor
Unknown
Orbital elements
Apogee altitude
485.607 km
Perigee altitude
484.339 km
Semi-major axis
6,863.11 km
Eccentricity
0.00009
Inclination
43.0013°
RAAN
44.6101°
Arg. of periapsis
268.896°
True anomaly
91.18919°
Mean anomaly
91.1786°
Eccentric anomaly
91.18389°
Mean motion
3.81735 °/min
Orbital period
94.31 mins
BSTAR
0.00043761
Loading maneuver chart data...
Computing Atmospheric mass density...
Loading historical data...
Loading historical data...
Loading historical data...
Loading historical data...
Loading historical data...
Loading historical data...
Loading historical data...

Documentation

Showing up to 5 results
|